Regional Weather Roundup
Issued by NWS Goodland, KS

Home | Current Version | Previous Version | Text Only | Print | Product List | Glossary Off
Versions: 1 2 3 4 5 6 7 8 9 10 11 12 13 14 15 16 17 18 19 20 21 22 23 24 25 26 27 28 29 30 31 32 33 34 35 36 37 38 39 40 41 42 43 44 45 46 47 48 49 50

000
ASUS43 KGLD 280308
RWRGLD

GOODLAND FORECAST AREA HOURLY WEATHER ROUNDUP
NATIONAL WEATHER SERVICE GOODLAND KS
800 PM MST TUE JAN 27 2015

...OFFICIAL OBSERVATIONS...

CITY           SKY/WX    TMP DP  RH WIND       PRES   REMARKS
GOODLAND KS    MOCLDY    53  28  38 S9        29.96F
HILL CITY KS   CLEAR     43  28  55 W5        29.93S
IMPERIAL NEB   CLOUDY    44  26  49 N3        29.93F
MCCOOK NEB     PTCLDY    52  30  43 W7        29.91F
AKRON CO       PTCLDY    47  27  45 S6        29.96F
BURLINGTON CO  PTCLDY    44  30  57 SW10      29.97F
LIMON CO       CLEAR     30  21  69 N9        30.02S
$$

...UNOFFICIAL OBSERVATIONS...

CITY           SKY/WX    TMP DP  RH WIND       PRES   REMARKS
COLBY KS       CLEAR     46  32  57 SW7       29.95F
GOVE KS          N/A     53  32  45 MISG        N/A
NORTON KS      CLEAR     48  27  43 CALM      29.92S
SHARON SPRINGS   N/A     49  31  49 SW12        N/A
KIT CARSON CO    N/A     42  28  56 MISG        N/A
YUMA CO          N/A     46  29  52 SW10        N/A
$$



USA.gov is the U.S. government's official web portal to all federal, state and local government web resources and services.